Domov               UVHVVR             MKGP            O straneh              
ZDRAVSTVENO VARSTVO RASTLIN
  MREŽA AGROMET. POSTAJ
 ► PROGNOSTIČNA OBVESTILA
AGROMETEOROLOŠKI PODATKI -
ARSO
OBVLADOVANJE TVEGANJ ZARADI
NEUGODNIH VREMENSKIH RAZMER
  ► NARAVNE NESREČE
  ► SUŠA/MOČA
  ► NAMAKANJE
  ► ŽLED (gozdarstvo)
KARTOGRAFSKI PRIKAZI
SPLETNE POVEZAVE
PROJEKTI IN PUBLIKACIJE

AGROMETEOROLOŠKA MREŽA: VREMENSKE POSTAJE IN FENOLOŠKA OPAZOVANJA

Pregled podatkov za lokacijo Zbigovci, meteorološka postaja 25164

Pregled senzorjev na lokaciji

ID Ime Zadnja
vrednost
Datum
zadnje
spremembe
Tip
senzorja
1931 Omočenost lista (U) 0 U 16.7.2018 00:30 A730WET
1930 Padavine (mm) 0 mm 16.7.2018 00:30 Generic 0.2 mm
1932 Relativna vlaga 2 m (% RH) 83,22 % RH 16.7.2018 00:30 Generic 0 - 100 %
1933 Temperatura 2 m (°C) 15,63 °C 16.7.2018 00:30 Generic -40 - +60 °C

Pregled podatkov zadnjih 24 ur

Zap.
št.
Datum in čas Zbigovci
Omočenost
lista
Padavine Relativna
vlaga
2
m
Temperatura
2
m
1 16.7.2018 00:30
2 16.7.2018 00:00
3 15.7.2018 23:30 0 0 83,2 15,6
4 15.7.2018 23:00 0 0 88,8 15,6
5 15.7.2018 22:30 0 0 83,3 16,9
6 15.7.2018 22:00 0 0 79,3 17,4
7 15.7.2018 21:30 0 0 74,5 18,2
8 15.7.2018 21:00 0 0 72,8 18,4
9 15.7.2018 20:30 0 0 75,7 18,3
10 15.7.2018 20:00 0 0 73,9 19,6
11 15.7.2018 19:30 0 0 69,4 20,7
12 15.7.2018 19:00 0 0 66,9 21,4
13 15.7.2018 18:30 0 0 63,2 22,3
14 15.7.2018 18:00 0 0 61 23,2
15 15.7.2018 17:30 0 0 55,9 23,3
16 15.7.2018 17:00 0 0 57,6 22,2
17 15.7.2018 16:30 0 0 64,6 22,1
18 15.7.2018 16:00 0 0 62,6 22,2
19 15.7.2018 15:30 0 0 62,3 22,3
20 15.7.2018 15:00 0 0 57,9 23,3
21 15.7.2018 14:30 0 0 57,7 22,8
22 15.7.2018 14:00 0 0 60,8 22,5
23 15.7.2018 13:30 0 0 58,2 23,5
24 15.7.2018 13:00 0 0 56,9 23,9
25 15.7.2018 12:30 0 0 56,2 24,1
26 15.7.2018 12:00 0 0 50,6 24
27 15.7.2018 11:30 0 0 53,5 25,2
28 15.7.2018 11:00 0 0 56,5 24,3
29 15.7.2018 10:30 0 0 52 24,3
30 15.7.2018 10:00 0 0 54,3 24,1
31 15.7.2018 09:30 0 0 56,1 23
32 15.7.2018 09:00 0 0 62,2 21,8
33 15.7.2018 08:30 0 0 68,3 20,6
34 15.7.2018 08:00 0 0 76,7 19,6
35 15.7.2018 07:30 0 0 77,4 18,9
36 15.7.2018 07:00 0 0 77,8 18,4
37 15.7.2018 06:30 0 0 79,2 17,3
38 15.7.2018 06:00 0 0 86,4 16,3
39 15.7.2018 05:30 5 0 93,1 15,7
40 15.7.2018 05:00 10 0 93,5 15,5
41 15.7.2018 04:30 9 0 93,7 15,4
42 15.7.2018 04:00 10 0 93,3 15,6
43 15.7.2018 03:30 9 0 93 15,7
44 15.7.2018 03:00 9 0 93 15,7
45 15.7.2018 02:30 9 0 93,9 15,6
46 15.7.2018 02:00 10 0 94,3 15,5
47 15.7.2018 01:30 10 0 92,4 15,8
48 15.7.2018 01:00 10 0 92,5 15,8
© 2011 Ministrstvo za kmetijstvo, gozdarstvo in prehrano. Vse pravice pridržane.